Regional Weather Roundup
Issued by NWS

Home | Current Version | Previous Version | Text Only | Print | Product List | Glossary Off
Versions: 1 2 3 4 5 6 7 8 9 10 11 12 13 14 15 16 17 18 19 20 21 22 23 24 25 26 27 28 29 30 31 32 33 34 35 36 37 38 39 40 41 42 43 44 45 46 47 48 49 50

000
ASUS43 KOAX 251802
RWRNE

WEATHER ROUNDUP FOR NEBRASKA
NATIONAL WEATHER SERVICE OMAHA NE
1200 PM CST TUE NOV 25 2014

NOTES: SATELLITE DATA IS BEING USED TO AUGMENT CLOUD COVER ABOVE
       12000 FEET.
       "FAIR" INDICATES FEW OR NO CLOUDS BELOW 12,000 FEET WITH NO
       SIGNIFICANT WEATHER AND/OR OBSTRUCTIONS TO VISIBILITY.

  * THESE STATIONS DO NOT REPORT WEATHER SUCH AS RAIN...SNOW OR FOG.

NEZ001>004-019>022-054>056-251900-
NEBRASKA PANHANDLE

CITY           SKY/WX    TMP DP  RH WIND       PRES   REMARKS
SCOTTSBLUFF    CLOUDY    45  19  35 W22G29    29.84F
6HR MIN TEMP:  21; 6HR MAX TEMP:  45;

ALLIANCE       CLOUDY    40  18  41 W18       29.83F WCI  31
6HR MIN TEMP:  24; 6HR MAX TEMP:  40;

CHADRON        CLOUDY    40  22  48 W9        29.82F WCI  34
6HR MIN TEMP:  28; 6HR MAX TEMP:  40;

SIDNEY         CLOUDY    41  19  41 W13       29.89F
6HR MIN TEMP:  21; 6HR MAX TEMP:  41;

$$

NEZ057>060-069>072-079>082-251900-
SOUTHWEST NEBRASKA

CITY           SKY/WX    TMP DP  RH WIND       PRES   REMARKS
NORTH PLATTE   CLOUDY    40  19  43 SW9       29.94F WCI  34
6HR MIN TEMP:  13; 6HR MAX TEMP:  40;

IMPERIAL       CLOUDY    39  18  42 S12       29.95F WCI  32
6HR MIN TEMP:  19; 6HR MAX TEMP:  39;

MCCOOK         PTSUNNY   45  17  32 S14       30.00F
6HR MIN TEMP:  18; 6HR MAX TEMP:  45;

$$

NEZ005>010-023>029-035>040-094-251900-
NORTH CENTRAL NEBRASKA

CITY           SKY/WX    TMP DP  RH WIND       PRES   REMARKS
VALENTINE      CLOUDY    36  23  59 SW9       29.84F WCI  29
6HR MIN TEMP:  19; 6HR MAX TEMP:  36;

BROKEN BOW     CLOUDY    40  21  46 SW13      29.95F WCI  32
6HR MIN TEMP:  18; 6HR MAX TEMP:  40;

ORD            PTSUNNY   40  24  53 S10       29.96F WCI  33
6HR MIN TEMP:  16; 6HR MAX TEMP:  40;

$$

NEZ041-046>049-061>064-073>077-083>087-251900-
SOUTH CENTRAL NEBRASKA

CITY           SKY/WX    TMP DP  RH WIND       PRES   REMARKS
GRAND ISLAND   MOSUNNY   42  25  50 SW14      30.02F
6HR MIN TEMP:  21; 6HR MAX TEMP:  43;

AURORA         SUNNY     42  27  55 SW12      30.02F
HASTINGS       MOSUNNY   42  25  50 SW10      30.02F
6HR MIN TEMP:  21; 6HR MAX TEMP:  42;

KEARNEY *      PTSUNNY   43  21  42 SW16      30.02F
YORK           SUNNY     41  27  56 SW10      30.04F
$$

NEZ011>018-030>034-042>045-251900-
NORTHEAST NEBRASKA

CITY           SKY/WX    TMP DP  RH WIND       PRES   REMARKS
NORFOLK        SUNNY     41  26  55 SW12      29.99F
6HR MIN TEMP:  15; 6HR MAX TEMP:  41;

BLAIR          SUNNY     37  17  43 S9        30.06F WCI  31
COLUMBUS *     SUNNY     39  27  60 SW8       30.04F WCI  34
TEKAMAH        SUNNY     38  18  44 S13       30.07F WCI  30
6HR MIN TEMP:  11; 6HR MAX TEMP:  38;

$$

NEZ050>053-065>068-078-088>093-251900-
SOUTHEAST NEBRASKA

CITY           SKY/WX    TMP DP  RH WIND       PRES   REMARKS
LINCOLN        SUNNY     41  25  53 SW12      30.08F
6HR MIN TEMP:  16; 6HR MAX TEMP:  41;

OMAHA EPPLEY   MOSUNNY   36  14  40 S9        30.10F WCI  29
6HR MIN TEMP:  18; 6HR MAX TEMP:  36;

FALLS CITY     SUNNY     39  16  39 S8        30.13F WCI  33
6HR MIN TEMP:  18; 6HR MAX TEMP:  40;

NEBRASKA CITY  MOSUNNY   37  13  38 S8        30.11F WCI  30
$$

NEZ044-045-051>053-067-251900-
OMAHA AREA

CITY           SKY/WX    TMP DP  RH WIND       PRES   REMARKS
OMAHA EPPLEY   MOSUNNY   36  14  40 S9        30.10F WCI  29
6HR MIN TEMP:  18; 6HR MAX TEMP:  36;

BLAIR          SUNNY     37  17  43 S9        30.06F WCI  31
MILLARD        SUNNY     38  19  46 S6        30.08F WCI  34
OFFUTT AFB     SUNNY     37  15  40 S8        30.08F WCI  31
$$


USA.gov is the U.S. government's official web portal to all federal, state and local government web resources and services.